ONEWEB-0145 (47291 NORAD) Tracking and Keplerian Element Data

This shows tracking and keplerian element data for the satellite.

Feedback or suggestion? Click here.




ElementValue
Catalog47291
NameONEWEB-0145
Epoch Orbit1710
Epoch Day106.16668981
Epoch Year2021
RAAN6.0266
Inclination87.9508
Eccentricity0.0001579
Argument of Perigee86.5114
Mean Anonmoly277.4379
Mean Motion13.27481123
Decay Rate1.3E-07
L11 47291U 20100AK 21106.16668981 .00000013 00000-0 00000+0 0 9994
L22 47291 87.9508 6.0266 0001579 86.5114 277.4379 13.27481123 17109

Live tracking and technical data element details for ONEWEB-0145 (NORAD 47291). ONEWEB-0145 can be tracked NOW for your location showing map with azimuth and elevation plus other details from your city location.

Track the satellite on the map from your city or location and see movement details for azimuth, elevation, latitude, longitude, range, height, and movement on the map or in text.







IsCatalogInMostPopularTable: catalog: 47291, numindb: 36
Update: records affected: 1



GetName: 47291 ONEWEB-0145

Hit Count: updated at: Fri, 16 Apr 2021 11:49:57 GMT